User: anonymous   Login
Location: Unspecified
(0.0000°N, 0.0000°E)
Time: 07:11:19
(UTC+00:00)
Language:

Isis 2 - Orbit

View from above orbital plane
View from above orbital plane
View from above satellite
View from above satellite

Ground track
Ground track

The orbit data is extracted from the following two-line orbital elements,

1  5104U 71024A   18225.65318962 -.00000001 +00000-0 -62076-4 0  9990
2  5104 088.1609 053.4393 0044567 029.8038 020.0474 12.67838251191761
Epoch (UTC): 13 August 2018 15:40:35
Eccentricity: 0.0044567
inclination: 88.1609°
perigee height: 1356 km
apogee height: 1425 km
right ascension of ascending node: 53.4393°
argument of perigee: 29.8038°
revolutions per day: 12.67838251
mean anomaly at epoch: 20.0474°
orbit number at epoch: 19176

The dashed part of the orbit path shows where the satellite is in the earth's shadow,  

DLR